Lexington Weather

Lexington, Massachusetts, USA

70°F
8/17/2022 6:48pm 
  • Lexington Conditions: Overcast
  • Temperature: 69.8°F / 21.0°CColder 0.4°F than last hour.
  • Dew Point: 57.6°FDecreased 1.6°Fsince last hour.
  • Relative Humidity: 65%Decreased 3.0% since last hour.
  • Wind: Calm, 10-min avg: Calm, gust: 2 mph
  • Barometer: 29.85 in Steady
  • Visibility: 10 miles
  • Rain Today: 0.00 in
  •   

Regional Weather Roundup
for Boston, MA

        
000
ASUS41 KBOX 130010
RWRBOX

REGIONAL WEATHER ROUNDUP
NATIONAL WEATHER SERVICE BOSTON/NORTON MA
800 PM EDT FRI AUG 12 2022

NOTE:  "FAIR" INDICATES FEW OR NO CLOUDS BELOW 12,000 FEET WITH NO 
SIGNIFICANT WEATHER AND/OR OBSTRUCTIONS TO VISIBILITY.

MAZALL-130100-
EASTERN MASSACHUSETTS
  
CITY           SKY/WX    TMP DP  RH WIND       PRES   REMARKS
BOSTON         PTCLDY    68  59  73 E5        30.02R                  
6HR MIN TEMP:  68; 6HR MAX TEMP:  77;                                

BEVERLY        CLEAR     70  48  45 N7        30.01R                  
LAWRENCE       CLEAR     70  50  49 N6        30.04R                  
BEDFORD        CLEAR     71  49  45 N6        30.01R                  
BLUE HILL      NOT AVBL                                               
NORWOOD        PTCLDY    73  54  51 N6        30.01R                  
MARSHFIELD     CLEAR     66  61  82 CALM      30.00S                  
PLYMOUTH       MOCLDY    69  61  75 CALM      30.01R                  
TAUNTON          N/A    N/A N/A N/A MISG      30.00R                  
NEW BEDFORD    PTCLDY    70  65  84 NE3       29.99R                  
$$

MAZALL-130100-
CAPE COD AND THE ISLANDS
  
CITY           SKY/WX    TMP DP  RH WIND       PRES   REMARKS
FALMOUTH       MOCLDY    72  61  68 N6        30.00R                  
HYANNIS        PTCLDY    70  63  78 N5        29.99R                  
CHATHAM        PTCLDY    69  64  84 CALM      29.99R                  
NANTUCKET      PTCLDY    69  67  93 NE3       29.99R                  
MARTHAS VNYRD  MOCLDY    72  66  81 CALM      30.00R                  
$$
 
MAZALL-130100-
CENTRAL AND WESTERN MASSACHUSETTS
  
CITY           SKY/WX    TMP DP  RH WIND       PRES   REMARKS
WORCESTER      CLEAR     70  45  40 NW9       30.05R                  
6HR MIN TEMP:  70; 6HR MAX TEMP:  78;                                

FITCHBURG      CLEAR     71  48  43 N6        30.04R                  
ORANGE         CLEAR     69  47  45 NW3       30.05R                  
SPRINGFIELD    PTCLDY    69  49  48 N5        30.00R                  
WESTFIELD      PTCLDY    73  44  35 N8        30.02R                  
NORTH ADAMS    PTCLDY    64  53  67 CALM      30.06R                  
PITTSFIELD     CLOUDY    67  45  45 CALM      30.06R                  
$$
 
RIZALL-130100-
RHODE ISLAND
  
CITY           SKY/WX    TMP DP  RH WIND       PRES   REMARKS
PROVIDENCE     MOCLDY    72  65  78 SE8       30.00R                  
6HR MIN TEMP:  72; 6HR MAX TEMP:  86;                                

NEWPORT        PTCLDY    69  66  90 S5        30.00R                  
BLOCK ISLAND   CLEAR     70  64  81 S3        30.00R                  
SMITHFIELD     PTCLDY    73  45  36 N7        30.02R                  
WESTERLY       CLEAR     72  63  73 CALM      29.98R                  
$$
 
CTZALL-130100-
CONNECTICUT
  
CITY           SKY/WX    TMP DP  RH WIND       PRES   REMARKS
BRADLEY INTL   PTCLDY    73  45  36 N6        30.02R                  
6HR MIN TEMP:  73; 6HR MAX TEMP:  83;                                

HARTFORD       CLEAR     78  45  30 N7        30.01R                  
BRIDGEPORT     CLEAR     77  42  28 N8        30.00R                  
DANBURY        CLEAR     75  43  31 N7        30.03R                  
GROTON         CLEAR     78  48  34 NW12      29.98R                  
NEW HAVEN      CLEAR     77  48  35 N6        30.00R                  
CHESTER        FAIR      73  48  40 NW5       30.01R                  
MERIDEN        CLEAR     75  46  35 NW7       30.01R                  
WILLIMANTIC    CLEAR     74  49  41 N7        30.01R                  
OXFORD         CLEAR     69  45  41 N9        30.04R                  
$$

MEZ002-015-021-024-NHZ003-005-008-011-012-014-VTZ005-008-130100-
NORTHERN NEW ENGLAND
  
CITY           SKY/WX    TMP DP  RH WIND       PRES   REMARKS
PORTLAND ME    MOCLDY    69  51  52 N15       30.02R                  
6HR MIN TEMP:  69; 6HR MAX TEMP:  80;                                

BANGOR ME      PTCLDY    68  53  58 NW9       30.01R                  
CONCORD NH     PTCLDY    69  47  45 N10       30.04R                  
MANCHESTER NH  MOCLDY    72  48  42 NW10      30.02R                  
NASHUA NH      PTCLDY    71  50  47 N6        30.04R                  
PORTSMOUTH NH  MOCLDY    68  49  49 NW7       30.01R                  
JAFFREY NH     CLEAR     69  48  47 CALM      30.07R                  
KEENE NH       CLEAR     68  50  52 N6          N/A                   
BURLINGTON VT  MOCLDY    66  52  60 N6        30.10R                  
MT. WASHINGTON DRZL/FOG  39  39 100 NW23        N/A  VSB 1/16WCI  29  
$$

NYZ052-076-130100-
EASTERN NEW YORK
  
CITY           SKY/WX    TMP DP  RH WIND       PRES   REMARKS
ALBANY         PTCLDY    72  45  37 NW10      30.05R                  
6HR MIN TEMP:  72; 6HR MAX TEMP:  79;                                

NEW YORK CITY  MOCLDY    81  46  29 E15       29.98R                  
6HR MIN TEMP:  81; 6HR MAX TEMP:  85;                                

$$
 
ANZALL-130100-
MARINE OBSERVATIONS
  
STATION/POSITION TIME  TEMP    WIND        PRES    VSBY  WAVE
                       AIR SEA DIR/SP/G                  HT/PER
                 (UTC) (F)     (DEG/KT/KT) (MB)    (MI)  (FT/S)
BOSTON BUOY      NOT AVBL
BUZZARDS BAY     NOT AVBL
NANTUCKET SOUND  NOT AVBL
MASS BAY-STELLWA NOT AVBL
ISLE OF SHOALS   NOT AVBL
S OF BLOCK IS    NOT AVBL
$$

......................KEY.........................
  SKY/WX - SKY CONDITION/PRESENT WEATHER
  TMP    - TEMPERATURE IN FAHRENHEIT
  DWPT   - DEWPOINT IN FAHRENHEIT
  RH     - RELATIVE HUMIDITY IN PERCENT
  WIND   - DIRECTION AND SPEED IN MPH
  PRES   - MEAN SEA LEVEL PRESSURE IN INCHES OF HG
  WCI    - WIND CHILL INDEX
  VSB    - VISIBILITY IN MILES
  HX     - HEAT INDEX
  TC     - TEMPERATURE IN CELSIUS
  VRB    - VARIABLE WIND DIRECTION
  N/A    - NOT AVAILABLE
  
      

Other recent Regional Weather Roundups

Wed Aug 17, 6:10pm

Wed Aug 17, 5:10pm

Wed Aug 17, 4:10pm

Wed Aug 17, 3:10pm

Wed Aug 17, 2:10pm

Wed Aug 17, 1:10pm

Wed Aug 17, 12:10pm

Wed Aug 17, 11:10am

Wed Aug 17, 10:10am

Wed Aug 17, 9:10am

Wed Aug 17, 8:10am

Wed Aug 17, 7:10am

Wed Aug 17, 6:10am

Wed Aug 17, 5:10am

Wed Aug 17, 4:10am

Wed Aug 17, 3:10am

Wed Aug 17, 2:10am

Wed Aug 17, 1:10am

Wed Aug 17, 12:10am

Tue Aug 16, 11:10pm

Tue Aug 16, 10:10pm

Tue Aug 16, 9:10pm

Tue Aug 16, 8:10pm

Tue Aug 16, 7:10pm

Tue Aug 16, 6:10pm

Tue Aug 16, 5:10pm

Tue Aug 16, 4:10pm

Tue Aug 16, 3:10pm

Tue Aug 16, 2:10pm

Tue Aug 16, 1:10pm

Tue Aug 16, 12:10pm

Tue Aug 16, 11:10am

Tue Aug 16, 10:10am

Tue Aug 16, 9:10am

Tue Aug 16, 8:10am

Tue Aug 16, 7:10am

Tue Aug 16, 6:10am

Tue Aug 16, 5:10am

Tue Aug 16, 4:10am

Tue Aug 16, 3:10am

Tue Aug 16, 2:10am

Tue Aug 16, 1:10am

Tue Aug 16, 12:10am

Mon Aug 15, 11:10pm

Mon Aug 15, 10:10pm

Mon Aug 15, 9:10pm

Mon Aug 15, 8:10pm

Mon Aug 15, 7:10pm

Mon Aug 15, 6:10pm

Mon Aug 15, 5:10pm

Mon Aug 15, 4:10pm

Mon Aug 15, 3:10pm

Mon Aug 15, 2:10pm

Mon Aug 15, 1:10pm

Mon Aug 15, 12:10pm

Mon Aug 15, 11:10am

Mon Aug 15, 10:10am

Mon Aug 15, 9:10am

Mon Aug 15, 8:10am

Mon Aug 15, 7:10am

Mon Aug 15, 6:10am

Mon Aug 15, 5:10am

Mon Aug 15, 4:10am

Mon Aug 15, 3:10am

Mon Aug 15, 2:10am

Mon Aug 15, 1:10am

Mon Aug 15, 12:10am

Sun Aug 14, 11:10pm

Sun Aug 14, 10:10pm

Sun Aug 14, 9:10pm

Sun Aug 14, 8:10pm

Sun Aug 14, 7:10pm

Sun Aug 14, 6:10pm

Sun Aug 14, 5:10pm

Sun Aug 14, 4:10pm

Sun Aug 14, 3:10pm

Sun Aug 14, 2:10pm

Sun Aug 14, 1:10pm

Sun Aug 14, 12:10pm

Sun Aug 14, 11:10am

Sun Aug 14, 10:10am

Sun Aug 14, 9:10am

Sun Aug 14, 8:10am

Sun Aug 14, 7:10am

Sun Aug 14, 6:10am

Sun Aug 14, 5:10am

Sun Aug 14, 4:10am

Sun Aug 14, 3:10am

Sun Aug 14, 2:10am

Sun Aug 14, 1:10am

Sun Aug 14, 12:10am

Sat Aug 13, 11:10pm

Sat Aug 13, 10:10pm

Sat Aug 13, 9:10pm

Sat Aug 13, 8:10pm

Sat Aug 13, 7:10pm

Sat Aug 13, 6:10pm

Sat Aug 13, 5:10pm

Sat Aug 13, 4:10pm

Sat Aug 13, 3:10pm

Sat Aug 13, 2:10pm

Sat Aug 13, 1:10pm

Sat Aug 13, 12:10pm

Sat Aug 13, 11:10am

Sat Aug 13, 10:10am

Sat Aug 13, 9:10am

Sat Aug 13, 8:10am

Sat Aug 13, 7:10am

Sat Aug 13, 6:10am

Sat Aug 13, 5:10am

Sat Aug 13, 4:10am

Sat Aug 13, 3:10am

Sat Aug 13, 2:10am

Sat Aug 13, 1:10am

Sat Aug 13, 12:10am

Fri Aug 12, 11:10pm

Fri Aug 12, 10:10pm

Fri Aug 12, 9:10pm

Fri Aug 12, 7:10pm

Fri Aug 12, 6:10pm

Fri Aug 12, 5:10pm

Fri Aug 12, 4:10pm

Fri Aug 12, 3:10pm

Fri Aug 12, 2:10pm

Fri Aug 12, 1:10pm

Fri Aug 12, 12:10pm

Fri Aug 12, 11:10am

Fri Aug 12, 10:10am

Fri Aug 12, 9:10am

Fri Aug 12, 8:10am

Fri Aug 12, 7:10am

Fri Aug 12, 6:10am

Fri Aug 12, 5:10am

Fri Aug 12, 4:10am

Fri Aug 12, 3:10am

Fri Aug 12, 2:10am

Fri Aug 12, 1:10am

Fri Aug 12, 12:10am

Thu Aug 11, 11:10pm

Thu Aug 11, 10:10pm

Thu Aug 11, 9:10pm

Thu Aug 11, 8:10pm

Thu Aug 11, 7:10pm

Thu Aug 11, 6:10pm

Thu Aug 11, 5:10pm

Thu Aug 11, 4:10pm

Thu Aug 11, 3:10pm

Thu Aug 11, 2:10pm

Thu Aug 11, 1:10pm

Thu Aug 11, 12:10pm

Thu Aug 11, 11:10am

Thu Aug 11, 10:10am

Thu Aug 11, 9:10am

Thu Aug 11, 8:10am

Thu Aug 11, 7:10am

Thu Aug 11, 6:10am

Thu Aug 11, 5:10am

Thu Aug 11, 4:10am

Thu Aug 11, 3:10am

Thu Aug 11, 2:10am

Thu Aug 11, 1:10am

Thu Aug 11, 12:10am

Wed Aug 10, 11:10pm

Wed Aug 10, 10:10pm

Wed Aug 10, 9:10pm

Wed Aug 10, 8:10pm

Wed Aug 10, 7:10pm

Meta data:

ID: 6e85280c-0192-4914-b48a-48c2828a6e3d
Link: https://api.weather.gov/products/6e85280c-0192-4914-b48a-48c2828a6e3d